| time (UTC) | temp F | wind direction | speed knots | gust knots | rain 1hr in | rain 24hr in | rain mn in | humidity % | barometer mb |
| 20260508060145 | 49 | 198 | 0.0 | 1.7 | 0.00 | 0.00 | 0.00 | 87 | 1016.6 |
| 20260508055206 | 47 | 198 | 0.0 | 0.9 | 0.00 | 0.00 | 0.00 | 87 | 1016.6 |
| 20260508054141 | 44 | 198 | 0.0 | 0.0 | 0.00 | 0.00 | 0.00 | 87 | 1016.5 |
| 20260508053133 | 42 | 198 | 0.0 | 0.0 | 0.00 | 0.00 | 0.00 | 87 | 1016.5 |
| 20260508052135 | 41 | 198 | 0.0 | 0.0 | 0.00 | 0.00 | 0.00 | 87 | 1016.5 |
| 20260508051118 | 40 | 180 | 0.0 | 0.0 | 0.00 | 0.00 | 0.00 | 87 | 1016.4 |
| 20260508050130 | 39 | 180 | 0.0 | 0.0 | 0.00 | 0.00 | 0.00 | 87 | 1016.3 |
| 20260508045128 | 38 | 180 | 0.0 | 0.0 | 0.00 | 0.00 | 0.00 | 87 | 1016.2 |
| 20260508043032 | 37 | 180 | 0.0 | 0.0 | 0.00 | 0.00 | 0.00 | 87 | 1016.3 |
| 20260508042053 | 37 | 180 | 0.0 | 0.0 | 0.00 | 0.00 | 0.00 | 87 | 1016.3 |
| 20260508041032 | 37 | 180 | 0.0 | 0.0 | 0.00 | 0.00 | 0.00 | 87 | 1016.3 |
| 20260508035957 | 37 | 180 | 0.0 | 0.0 | 0.00 | 0.00 | 0.00 | 87 | 1016.3 |
| 20260508034925 | 38 | 180 | 0.0 | 0.0 | 0.00 | 0.00 | 0.00 | 87 | 1016.3 |
| 20260508032731 | 38 | 180 | 0.0 | 0.0 | 0.00 | 0.00 | 0.00 | 87 | 1016.2 |
| 20260508031700 | 38 | 180 | 0.0 | 0.0 | 0.00 | 0.00 | 0.00 | 87 | 1016.2 |
| 20260508025536 | 39 | 180 | 0.0 | 0.0 | 0.00 | 0.00 | 0.00 | 87 | 1016.2 |
| 20260508024541 | 39 | 180 | 0.0 | 0.0 | 0.00 | 0.00 | 0.00 | 87 | 1016.2 |
| 20260508022400 | 39 | 180 | 0.0 | 0.0 | 0.00 | 0.00 | 0.00 | 86 | 1016.2 |
| 20260508020214 | 40 | 180 | 0.0 | 0.0 | 0.00 | 0.00 | 0.00 | 86 | 1016.3 |
| 20260508015139 | 40 | 180 | 0.0 | 0.0 | 0.00 | 0.00 | 0.00 | 86 | 1016.2 |
| 20260508014119 | 40 | 180 | 0.0 | 0.0 | 0.00 | 0.00 | 0.00 | 86 | 1016.0 |
| 20260508013136 | 41 | 180 | 0.0 | 0.0 | 0.00 | 0.00 | 0.00 | 86 | 1016.1 |
| 20260508012132 | 41 | 180 | 0.0 | 0.0 | 0.00 | 0.00 | 0.00 | 86 | 1016.1 |
| 20260508011132 | 41 | 180 | 0.0 | 0.0 | 0.00 | 0.00 | 0.00 | 85 | 1016.2 |
| 20260508004957 | 42 | 180 | 0.0 | 0.0 | 0.00 | 0.00 | 0.00 | 85 | 1016.2 |
| 20260508002915 | 43 | 180 | 0.0 | 0.0 | 0.00 | 0.00 | 0.00 | 85 | 1016.3 |
| 20260508001843 | 44 | 180 | 0.0 | 0.0 | 0.00 | 0.00 | 0.00 | 85 | 1016.4 |
| 20260508000838 | 44 | 180 | 0.0 | 0.0 | 0.00 | 0.00 | 0.00 | 85 | 1016.4 |
| 20260507235821 | 45 | 180 | 0.0 | 0.0 | 0.00 | 0.00 | 0.00 | 85 | 1016.5 |
| 20260507234806 | 46 | 180 | 0.0 | 0.0 | 0.00 | 0.00 | 0.00 | 85 | 1016.6 |
| 20260507233823 | 46 | 180 | 0.0 | 0.0 | 0.00 | 0.00 | 0.00 | 85 | 1016.6 |
| 20260507230609 | 48 | 182 | 0.0 | 1.7 | 0.00 | 0.00 | 0.00 | 85 | 1016.7 |
| 20260507225543 | 48 | 183 | 0.9 | 3.5 | 0.00 | 0.00 | 0.00 | 84 | 1016.7 |
| 20260507224537 | 48 | 187 | 0.9 | 3.5 | 0.00 | 0.00 | 0.00 | 84 | 1016.7 |
| 20260507223507 | 49 | 196 | 0.0 | 2.6 | 0.00 | 0.00 | 0.00 | 84 | 1016.7 |
| 20260507222500 | 49 | 150 | 0.9 | 3.5 | 0.00 | 0.00 | 0.00 | 84 | 1016.7 |
| 20260507220349 | 50 | 153 | 1.7 | 4.3 | 0.00 | 0.00 | 0.00 | 82 | 1016.6 |
| 20260507215347 | 50 | 167 | 1.7 | 5.2 | 0.00 | 0.00 | 0.00 | 82 | 1016.6 |
| 20260507212042 | 51 | 147 | 5.2 | 9.6 | 0.00 | 0.00 | 0.00 | 80 | 1016.4 |
| 20260507211045 | 51 | 134 | 4.3 | 8.7 | 0.00 | 0.00 | 0.00 | 80 | 1016.4 |
| 20260507204930 | 51 | 143 | 2.6 | 7.0 | 0.00 | 0.00 | 0.00 | 79 | 1016.4 |
| 20260507203935 | 51 | 156 | 1.7 | 7.0 | 0.00 | 0.00 | 0.00 | 79 | 1016.4 |
| 20260507202952 | 51 | 148 | 1.7 | 6.1 | 0.00 | 0.00 | 0.00 | 79 | 1016.2 |
| 20260507202006 | 51 | 142 | 1.7 | 6.1 | 0.00 | 0.00 | 0.00 | 78 | 1016.0 |
| 20260507194742 | 52 | 140 | 3.5 | 6.1 | 0.00 | 0.00 | 0.00 | 77 | 1015.9 |
| 20260507193714 | 52 | 147 | 3.5 | 9.6 | 0.00 | 0.00 | 0.00 | 76 | 1015.8 |
| 20260507192717 | 52 | 138 | 3.5 | 9.6 | 0.00 | 0.00 | 0.00 | 76 | 1015.8 |
| 20260507191654 | 52 | 136 | 3.5 | 9.6 | 0.00 | 0.00 | 0.00 | 76 | 1015.7 |
| 20260507190630 | 53 | 150 | 3.5 | 7.8 | 0.00 | 0.00 | 0.00 | 76 | 1015.7 |
| 20260507185600 | 53 | 153 | 3.5 | 7.8 | 0.00 | 0.00 | 0.00 | 75 | 1015.8 |
| 20260507184622 | 53 | 144 | 4.3 | 12.2 | 0.00 | 0.00 | 0.00 | 74 | 1015.7 |
| 20260507183622 | 53 | 148 | 4.3 | 12.2 | 0.00 | 0.00 | 0.00 | 74 | 1015.7 |
| 20260507182607 | 53 | 133 | 6.1 | 10.4 | 0.00 | 0.00 | 0.00 | 73 | 1015.6 |
| 20260507175307 | 54 | 144 | 5.2 | 11.3 | 0.00 | 0.00 | 0.00 | 71 | 1015.4 |
| 20260507174319 | 55 | 143 | 4.3 | 9.6 | 0.00 | 0.00 | 0.00 | 69 | 1015.4 |
| 20260507173336 | 55 | 191 | 4.3 | 9.6 | 0.00 | 0.00 | 0.00 | 69 | 1015.3 |
| 20260507172318 | 55 | 165 | 5.2 | 12.2 | 0.00 | 0.00 | 0.00 | 69 | 1015.4 |
| 20260507170151 | 56 | 157 | 3.5 | 7.8 | 0.00 | 0.00 | 0.00 | 66 | 1015.3 |
| 20260507165126 | 57 | 165 | 4.3 | 8.7 | 0.00 | 0.00 | 0.00 | 66 | 1015.3 |
| 20260507164102 | 57 | 136 | 3.5 | 7.8 | 0.00 | 0.00 | 0.00 | 64 | 1015.3 |
| 20260507163113 | 57 | 168 | 3.5 | 7.8 | 0.00 | 0.00 | 0.00 | 65 | 1015.3 |
| 20260507162055 | 57 | 161 | 3.5 | 7.8 | 0.00 | 0.00 | 0.00 | 64 | 1015.3 |
| 20260507161117 | 57 | 135 | 3.5 | 7.8 | 0.00 | 0.00 | 0.00 | 65 | 1015.3 |
| 20260507160115 | 56 | 173 | 3.5 | 8.7 | 0.00 | 0.00 | 0.00 | 65 | 1015.3 |
| 20260507155119 | 56 | 134 | 3.5 | 10.4 | 0.00 | 0.00 | 0.00 | 66 | 1015.4 |
| 20260507154101 | 57 | 147 | 5.2 | 10.4 | 0.00 | 0.00 | 0.00 | 65 | 1015.4 |
| 20260507151845 | 58 | 178 | 0.0 | 1.7 | 0.00 | 0.00 | 0.00 | 58 | 1015.4 |
| 20260507150820 | 58 | 178 | 0.0 | 0.9 | 0.00 | 0.00 | 0.00 | 59 | 1015.4 |
| 20260507145838 | 58 | 194 | 0.0 | 2.6 | 0.00 | 0.00 | 0.00 | 59 | 1015.4 |
| 20260507144853 | 59 | 180 | 0.0 | 2.6 | 0.00 | 0.00 | 0.00 | 58 | 1015.5 |
| 20260507143856 | 59 | 231 | 0.0 | 2.6 | 0.00 | 0.00 | 0.00 | 59 | 1015.5 |
| 20260507142841 | 59 | 254 | 0.0 | 2.6 | 0.00 | 0.00 | 0.00 | 58 | 1015.5 |
| 20260507141849 | 59 | 180 | 0.9 | 2.6 | 0.00 | 0.00 | 0.00 | 56 | 1015.5 |
| 20260507140910 | 59 | 251 | 0.9 | 2.6 | 0.00 | 0.00 | 0.00 | 59 | 1015.6 |
| 20260507135917 | 58 | 177 | 0.0 | 0.0 | 0.00 | 0.00 | 0.00 | 60 | 1015.7 |
| 20260507134933 | 58 | 176 | 0.0 | 0.0 | 0.00 | 0.00 | 0.00 | 59 | 1015.7 |
| 20260507133936 | 58 | 173 | 0.9 | 4.3 | 0.00 | 0.00 | 0.00 | 58 | 1015.7 |
| 20260507131819 | 60 | 266 | 0.9 | 5.2 | 0.00 | 0.00 | 0.00 | 56 | 1015.7 |
| 20260507130806 | 59 | 253 | 1.7 | 5.2 | 0.00 | 0.00 | 0.00 | 57 | 1015.8 |
| 20260507125819 | 60 | 142 | 1.7 | 6.1 | 0.00 | 0.00 | 0.00 | 56 | 1015.8 |
| 20260507123702 | 56 | 134 | 0.9 | 8.7 | 0.00 | 0.00 | 0.00 | 61 | 1015.8 |
| 20260507122652 | 56 | 188 | 1.7 | 8.7 | 0.00 | 0.00 | 0.00 | 63 | 1015.9 |
| 20260507121643 | 57 | 239 | 0.0 | 6.1 | 0.00 | 0.00 | 0.00 | 62 | 1015.9 |
| 20260507120611 | 56 | 244 | 1.7 | 6.1 | 0.00 | 0.00 | 0.00 | 63 | 1016.0 |
| 20260507115605 | 56 | 145 | 1.7 | 4.3 | 0.00 | 0.00 | 0.00 | 62 | 1016.1 |
| 20260507113525 | 58 | 111 | 3.5 | 8.7 | 0.00 | 0.00 | 0.00 | 59 | 1016.1 |
| 20260507112529 | 60 | 140 | 2.6 | 8.7 | 0.00 | 0.00 | 0.00 | 57 | 1016.1 |
| 20260507111512 | 59 | 215 | 3.5 | 8.7 | 0.00 | 0.00 | 0.00 | 61 | 1016.1 |
| 20260507110505 | 58 | 136 | 2.6 | 8.7 | 0.00 | 0.00 | 0.00 | 61 | 1016.2 |
| 20260507105442 | 58 | 144 | 3.5 | 7.8 | 0.00 | 0.00 | 0.00 | 61 | 1016.3 |
| 20260507104452 | 58 | 188 | 2.6 | 7.0 | 0.00 | 0.00 | 0.00 | 62 | 1016.3 |
| 20260507103510 | 58 | 155 | 2.6 | 7.0 | 0.00 | 0.00 | 0.00 | 61 | 1016.4 |
| 20260507102442 | 56 | 155 | 2.6 | 7.0 | 0.00 | 0.00 | 0.00 | 65 | 1016.4 |
| 20260507101452 | 55 | 136 | 1.7 | 7.0 | 0.00 | 0.00 | 0.00 | 65 | 1016.4 |
| 20260507100422 | 54 | 222 | 1.7 | 5.2 | 0.00 | 0.00 | 0.00 | 67 | 1016.4 |
| 20260507095425 | 54 | 191 | 2.6 | 7.0 | 0.00 | 0.00 | 0.00 | 69 | 1016.4 |
| 20260507094351 | 54 | 143 | 3.5 | 7.0 | 0.00 | 0.00 | 0.00 | 68 | 1016.5 |
| 20260507093321 | 54 | 127 | 3.5 | 7.0 | 0.00 | 0.00 | 0.00 | 68 | 1016.3 |
| 20260507092334 | 54 | 135 | 2.6 | 6.1 | 0.00 | 0.00 | 0.00 | 70 | 1016.3 |
| 20260507090134 | 53 | 147 | 3.5 | 6.1 | 0.00 | 0.00 | 0.00 | 70 | 1016.4 |
| 20260507085124 | 53 | 184 | 1.7 | 6.1 | 0.00 | 0.00 | 0.00 | 74 | 1016.4 |
| 20260507084120 | 52 | 184 | 0.9 | 4.3 | 0.00 | 0.00 | 0.00 | 73 | 1016.4 |
| 20260507083126 | 52 | 134 | 1.7 | 5.2 | 0.00 | 0.00 | 0.00 | 73 | 1016.4 |
| 20260507082059 | 52 | 169 | 2.6 | 7.0 | 0.00 | 0.00 | 0.00 | 72 | 1016.4 |
| 20260507081100 | 52 | 143 | 1.7 | 7.0 | 0.00 | 0.00 | 0.00 | 73 | 1016.4 |
| 20260507080122 | 52 | 159 | 2.6 | 7.0 | 0.00 | 0.00 | 0.00 | 75 | 1016.3 |
| 20260507075110 | 51 | 125 | 2.6 | 7.0 | 0.00 | 0.00 | 0.00 | 77 | 1016.3 |
| 20260507074103 | 50 | 169 | 1.7 | 6.1 | 0.00 | 0.00 | 0.00 | 80 | 1016.2 |
| 20260507073053 | 50 | 146 | 1.7 | 6.1 | 0.00 | 0.00 | 0.00 | 81 | 1016.1 |
| 20260507072115 | 49 | 150 | 1.7 | 6.1 | 0.00 | 0.00 | 0.00 | 80 | 1016.1 |
| 20260507071047 | 49 | 145 | 2.6 | 5.2 | 0.00 | 0.00 | 0.00 | 81 | 1016.0 |
| 20260507070048 | 48 | 136 | 2.6 | 5.2 | 0.00 | 0.00 | 0.00 | 83 | 1016.0 |
| 20260507065109 | 48 | 133 | 1.7 | 3.5 | 0.00 | 0.00 | 0.00 | 84 | 1016.0 |
| 20260507064127 | 48 | 147 | 1.7 | 3.5 | 0.00 | 0.00 | 0.00 | 86 | 1016.0 |
| 20260507061933 | 47 | 94 | 0.0 | 1.7 | 0.00 | 0.00 | 0.00 | 87 | 1016.0 |
| 20260507060925 | 47 | 62 | 0.0 | 0.0 | 0.00 | 0.01 | 0.00 | 87 | 1016.0 |